Wind_Speed
16 16 16 16 16 16 15 15 15 15 15 15 15 15 15 15 15 15 15 15 15 15 14 14 14 13 13 12 12 12 12 12 12 12 12 12 12 12 12 12 12 12 12
17 17 18 18 18 17 17 17 17 16 16 16 16 15 15 15 16 16 16 16 17 17 17 16 16 15 15 14 14 14 14 14 14 13 14 14 14 14 14 13 13 14 14
18 18 19 20 19 19 18 18 17 17 17 17 16 16 16 16 16 16 16 17 17 18 18 18 17 17 17 16 16 16 15 15 15 15 15 15 16 16 15 15 15 15 15
19 19 20 21 21 21 20 19 19 19 18 18 18 17 17 18 17 17 17 17 18 18 18 18 18 18 18 17 17 17 17 17 17 17 17 17 17 17 17 17 17 17 17
21 21 21 21 22 22 22 21 20 20 20 20 19 19 19 19 19 19 19 19 19 19 19 19 19 19 19 19 19 19 18 18 18 19 19 19 19 19 19 19 19 19 19
23 22 21 22 23 23 23 23 22 22 22 22 22 22 21 21 21 21 21 21 21 20 21 21 20 20 20 20 20 20 20 20 20 20 20 20 21 21 21 21 21 21 21
24 24 23 23 24 24 25 24 24 24 24 24 23 24 23 23 23 23 22 22 23 22 22 22 22 22 22 22 22 22 22 21 22 22 22 22 22 23 23 23 23 23 23
26 25 24 24 24 25 25 25 25 26 26 26 25 25 25 25 25 24 24 24 24 24 24 24 24 24 24 24 24 24 24 24 24 24 24 24 24 25 25 25 25 25 24
28 27 26 25 25 25 26 26 27 27 27 27 27 27 27 26 26 26 26 26 26 26 25 26 26 26 26 27 27 26 26 26 26 26 26 26 26 26 26 26 26 27 27
29 28 27 27 27 27 27 28 28 28 28 28 29 28 28 28 28 28 28 28 28 28 28 28 27 28 28 29 29 28 28 27 27 27 27 28 27 27 27 27 27 28 28
31 30 29 29 29 29 29 29 30 30 30 31 31 31 30 30 30 29 30 30 30 30 30 30 30 30 30 30 30 30 29 29 29 29 29 29 29 29 28 28 28 29 29
32 32 31 31 31 30 30 31 32 31 31 32 32 32 32 32 31 31 31 31 31 31 31 31 31 31 31 31 31 31 31 31 31 31 31 31 31 31 31 30 30 30 30
33 33 33 32 32 32 32 33 33 33 33 33 33 33 34 34 34 33 33 33 32 32 32 32 32 32 32 33 33 32 32 33 33 33 33 33 33 33 33 32 32 32 32
33 33 34 34 34 34 34 34 34 34 34 34 33 33 34 35 35 35 34 34 34 33 33 33 33 33 33 33 33 33 33 33 34 34 34 35 35 35 35 34 34 34 34
33 33 34 34 35 35 35 35 35 35 35 34 35 34 34 35 35 36 35 34 34 35 35 35 35 34 34 34 34 34 34 35 35 35 36 36 37 37 37 37 37 36 36
33 34 34 34 35 35 35 35 35 36 36 35 36 35 34 34 35 35 35 35 35 35 36 36 36 36 35 35 35 36 36 36 36 37 37 37 38 38 39 39 39 38 38
34 34 33 34 34 34 34 35 35 35 36 36 36 36 35 35 35 36 36 36 36 37 37 37 37 37 37 37 37 38 38 37 37 38 37 37 38 39 40 40 40 40 39
35 34 33 33 34 34 34 34 34 36 37 36 37 37 37 36 36 37 37 37 37 37 38 38 38 39 39 39 39 39 39 38 38 38 38 38 38 38 40 40 40 40 40
35 35 34 34 34 35 34 34 34 35 36 36 36 37 37 37 37 37 38 38 38 38 38 38 38 39 39 39 40 40 40 40 40 39 39 39 39 39 40 40 41 41 41
35 35 35 35 35 35 35 35 36 36 36 36 36 37 38 39 39 38 38 39 40 39 39 39 39 40 40 41 41 41 41 41 41 41 41 41 41 41 41 41 41 41 41
35 34 35 34 35 34 34 35 36 37 37 37 37 37 37 38 39 39 39 40 40 40 40 40 40 40 40 41 41 41 42 42 42 42 43 43 43 43 43 43 43 43 43
36 35 35 35 34 34 34 34 36 36 37 37 37 37 37 38 38 38 38 39 40 40 41 40 40 40 41 41 41 41 42 43 43 44 44 45 45 44 44 44 44 44 44
36 35 35 34 34 34 34 34 35 36 37 37 37 36 37 37 38 38 38 38 39 39 39 39 40 40 41 42 42 43 43 43 44 45 45 46 46 46 46 45 45 46 46
35 35 35 34 35 35 34 34 35 36 37 37 37 37 38 37 38 38 38 38 38 39 40 40 41 41 41 42 42 43 43 44 44 44 45 45 46 46 46 47 47 47 47
33 34 34 34 35 35 35 35 36 37 37 38 37 37 37 37 38 38 39 40 40 40 40 40 41 42 42 42 43 43 44 44 45 44 44 45 45 46 47 47 48 48 49
32 33 33 34 34 35 36 36 36 36 37 37 38 37 37 38 38 39 39 40 40 41 41 41 42 42 42 43 43 44 44 45 44 45 45 44 44 44 45 46 46 47 48
Wind_Direction
244 244 244 243 243 243 244 246 247 248 249 250 251 250 250 251 252 253 253 253 252 251 252 255 257 257 259 259 260 258 259 261 262 263 264 265 266 268 270 271 271 272 272
246 245 245 244 245 245 245 246 247 248 247 249 250 249 249 250 251 253 253 253 254 254 253 255 257 258 258 258 260 261 262 263 263 264 265 265 267 269 271 272 272 273 272
247 246 245 245 246 246 245 245 245 246 248 249 249 249 249 251 251 253 254 254 256 256 257 257 257 260 260 259 261 262 263 263 262 263 265 266 267 268 270 272 273 274 274
247 247 246 245 245 246 245 245 246 246 248 249 249 251 251 252 253 253 254 255 256 258 259 259 260 260 261 262 264 264 263 262 263 265 265 265 266 268 269 270 272 274 275
248 248 247 245 245 246 246 246 247 248 248 249 251 252 254 255 255 255 256 257 258 258 258 259 260 260 261 263 264 265 264 264 265 266 265 265 266 267 269 271 272 273 273
250 248 248 247 246 246 246 247 248 249 250 251 253 254 255 256 256 256 257 257 258 259 259 259 259 260 261 262 264 265 266 266 266 267 266 266 266 267 269 271 272 273 273
249 248 247 248 247 247 247 247 249 250 251 252 254 255 255 255 256 257 258 258 259 260 260 260 260 261 262 262 263 265 266 267 268 268 268 267 267 268 270 271 272 274 274
248 247 248 249 249 248 247 247 249 251 252 253 253 255 255 256 257 259 260 261 261 261 262 262 262 262 263 263 264 265 266 267 268 268 269 269 268 269 270 271 272 272 273
248 247 248 250 250 249 247 247 248 250 252 252 253 254 255 256 257 259 260 261 262 262 263 263 263 263 263 263 264 265 267 268 267 267 268 269 270 271 271 271 272 272 272
248 247 249 250 251 250 249 248 248 250 251 251 253 254 255 257 258 259 260 261 262 263 263 263 264 264 264 264 264 265 266 267 267 267 267 268 270 271 272 273 273 272 272
248 248 249 251 252 251 251 250 250 251 251 252 252 253 255 257 259 260 261 261 262 262 263 264 265 265 264 264 264 264 265 267 267 267 268 268 269 270 271 272 273 273 272
248 248 249 250 252 252 252 252 251 251 251 251 253 254 255 256 258 260 261 261 262 262 263 264 266 266 266 265 265 266 267 267 267 267 268 268 269 269 270 271 272 272 272
247 248 249 250 251 251 252 253 253 252 251 252 253 255 256 257 258 260 261 261 262 262 263 265 266 267 267 266 265 266 268 268 268 268 268 268 269 269 270 270 271 271 272
248 249 250 251 251 251 252 252 253 252 252 253 254 256 257 257 257 259 260 261 261 262 263 265 267 267 267 267 266 266 267 268 269 268 269 269 269 269 269 270 271 272 272
250 250 252 252 252 252 253 251 252 252 253 254 255 257 259 259 258 258 259 260 261 262 263 264 265 266 267 267 267 267 267 267 268 269 269 269 269 269 270 270 271 271 272
252 252 253 253 253 253 253 252 251 252 253 254 256 256 258 259 260 260 260 261 262 263 264 264 265 266 266 267 267 267 267 268 269 270 270 270 270 270 270 271 270 271 271
253 253 254 255 254 253 253 253 252 252 253 255 257 257 258 260 261 262 263 263 264 265 266 265 266 266 266 266 266 267 267 268 269 270 270 271 271 271 271 271 271 271 271
254 255 255 254 254 253 252 253 253 253 254 256 258 259 260 261 262 263 264 265 265 267 267 267 266 267 267 266 267 268 268 268 269 270 270 271 272 273 272 271 271 271 271
253 253 255 255 254 253 252 252 253 254 255 256 258 259 261 262 263 264 264 266 266 267 268 269 269 268 267 267 267 267 269 269 269 269 270 272 273 274 274 273 271 270 270
253 253 254 254 254 254 253 252 254 255 256 256 258 259 261 263 264 266 266 266 266 267 268 268 269 269 268 269 268 269 270 270 269 270 271 272 273 273 274 274 273 271 271
253 253 253 254 254 254 253 254 254 255 256 256 257 260 261 263 264 265 266 266 267 268 268 268 268 269 269 269 270 270 271 271 270 271 271 272 273 273 273 273 273 272 272
252 253 252 253 253 253 254 254 254 255 255 256 258 260 261 262 264 264 266 267 268 268 268 268 268 269 269 270 270 271 271 270 270 271 272 272 273 273 273 273 272 272 272
252 252 252 252 253 253 253 255 256 256 256 257 259 260 262 263 264 265 266 269 269 268 268 269 270 270 270 270 271 271 271 270 270 271 272 272 272 273 272 273 273 272 272
252 251 252 253 253 252 253 256 258 257 257 258 259 261 263 264 265 266 267 268 270 269 269 270 271 272 272 272 272 273 273 273 272 272 272 272 272 272 273 272 272 272 272
252 252 252 253 253 254 254 256 258 258 257 257 259 260 262 264 266 267 269 269 269 270 271 272 272 272 272 272 273 274 274 274 274 274 273 272 272 273 273 272 271 271 272
253 252 251 252 254 256 257 258 258 257 257 258 259 260 262 263 265 267 269 271 270 271 272 272 273 273 273 273 274 274 274 275 274 274 274 273 272 273 273 273 273 272 272
Height
5841 5841 5842 5843 5844 5845 5846 5847 5847 5848 5849 5850 5850 5851 5852 5852 5853 5854 5854 5854 5855 5855 5855 5855 5856 5856 5856 5856 5856 5856 5856 5856 5856 5856 5856 5856 5856 5856 5855 5855 5855 5854 5854
5837 5838 5839 5840 5841 5842 5843 5844 5845 5846 5847 5847 5848 5849 5849 5850 5851 5851 5852 5852 5852 5853 5853 5853 5853 5853 5853 5854 5854 5854 5854 5854 5854 5854 5854 5854 5854 5853 5853 5853 5852 5852 5852
5834 5835 5835 5837 5838 5839 5840 5841 5842 5843 5844 5845 5845 5846 5847 5847 5848 5848 5849 5849 5850 5850 5850 5850 5851 5851 5851 5851 5851 5851 5851 5851 5851 5851 5851 5851 5851 5851 5850 5850 5850 5849 5849
5830 5831 5832 5833 5834 5835 5836 5838 5839 5840 5841 5842 5843 5843 5844 5845 5845 5846 5846 5846 5847 5847 5847 5847 5848 5848 5848 5848 5848 5848 5849 5848 5849 5849 5848 5848 5848 5848 5847 5847 5847 5846 5846
5826 5827 5828 5829 5830 5831 5833 5834 5835 5836 5837 5838 5839 5840 5841 5842 5842 5843 5843 5843 5844 5844 5844 5844 5844 5845 5845 5845 5845 5845 5845 5845 5845 5845 5845 5845 5844 5844 5844 5844 5844 5843 5843
5821 5822 5824 5825 5826 5827 5828 5830 5831 5832 5833 5834 5835 5836 5837 5838 5839 5839 5840 5840 5840 5840 5841 5841 5841 5841 5841 5841 5841 5841 5842 5842 5841 5841 5841 5841 5841 5840 5840 5840 5840 5839 5839
5816 5818 5819 5820 5821 5823 5824 5825 5826 5828 5829 5830 5831 5832 5833 5834 5834 5835 5835 5836 5836 5836 5837 5837 5837 5837 5837 5837 5837 5837 5837 5837 5837 5837 5837 5837 5837 5836 5836 5836 5835 5835 5835
5811 5812 5814 5815 5816 5818 5819 5820 5821 5823 5824 5825 5826 5827 5828 5829 5830 5830 5831 5831 5832 5832 5832 5832 5832 5833 5833 5833 5833 5833 5833 5833 5833 5833 5833 5832 5832 5832 5831 5831 5831 5830 5830
5806 5807 5808 5810 5811 5812 5814 5815 5816 5817 5818 5820 5821 5822 5823 5824 5824 5825 5826 5826 5826 5827 5827 5827 5827 5827 5828 5828 5828 5828 5828 5828 5828 5827 5827 5827 5827 5827 5826 5826 5826 5825 5825
5800 5801 5803 5804 5805 5806 5808 5809 5810 5811 5812 5814 5815 5816 5817 5818 5819 5819 5820 5821 5821 5821 5821 5822 5822 5822 5822 5822 5822 5822 5822 5822 5822 5822 5822 5821 5821 5821 5821 5821 5820 5820 5819
5794 5795 5796 5798 5799 5800 5801 5803 5804 5805 5806 5808 5809 5810 5811 5812 5813 5813 5814 5815 5815 5815 5815 5815 5815 5816 5816 5816 5816 5816 5816 5816 5816 5816 5815 5815 5815 5815 5815 5815 5814 5814 5814
5787 5788 5790 5791 5792 5794 5795 5796 5797 5798 5800 5801 5802 5804 5805 5806 5806 5807 5807 5808 5808 5809 5809 5809 5809 5809 5809 5809 5809 5809 5809 5809 5809 5809 5809 5809 5809 5809 5808 5808 5808 5808 5807
5780 5781 5783 5784 5785 5786 5788 5789 5790 5791 5792 5794 5795 5797 5798 5799 5800 5800 5800 5801 5801 5802 5802 5802 5802 5802 5802 5802 5802 5802 5802 5802 5802 5802 5802 5802 5802 5802 5802 5801 5801 5801 5801
5773 5774 5775 5776 5777 5779 5780 5782 5783 5784 5785 5787 5788 5789 5791 5792 5792 5793 5794 5794 5794 5795 5795 5795 5795 5795 5795 5795 5795 5794 5794 5794 5794 5794 5794 5794 5794 5794 5794 5794 5794 5794 5793
5765 5766 5767 5768 5769 5771 5772 5774 5775 5777 5778 5780 5781 5782 5783 5784 5785 5785 5786 5786 5787 5787 5788 5788 5788 5788 5788 5787 5787 5787 5787 5786 5786 5786 5786 5786 5786 5786 5786 5786 5786 5785 5785
5757 5758 5759 5760 5761 5763 5764 5766 5767 5769 5770 5772 5773 5774 5775 5776 5777 5777 5778 5778 5779 5779 5780 5780 5780 5780 5780 5779 5779 5779 5779 5778 5778 5777 5777 5777 5777 5777 5777 5777 5777 5777 5777
5749 5750 5751 5752 5753 5755 5756 5758 5760 5761 5762 5764 5765 5766 5767 5768 5769 5770 5770 5771 5771 5771 5771 5771 5771 5771 5771 5771 5770 5770 5770 5770 5769 5768 5768 5768 5768 5767 5767 5767 5767 5767 5767
5740 5742 5743 5744 5745 5747 5748 5750 5752 5753 5754 5756 5757 5758 5759 5760 5761 5762 5762 5762 5762 5762 5762 5763 5762 5762 5762 5762 5761 5761 5761 5760 5760 5759 5759 5759 5758 5758 5757 5757 5757 5757 5757
5732 5733 5734 5735 5737 5739 5740 5742 5743 5745 5746 5748 5749 5750 5751 5752 5752 5753 5754 5754 5754 5754 5754 5754 5754 5753 5753 5752 5752 5751 5751 5751 5750 5750 5750 5749 5749 5748 5748 5747 5747 5747 5747
5723 5724 5725 5727 5728 5730 5731 5733 5734 5736 5737 5739 5740 5741 5742 5743 5744 5744 5745 5745 5745 5745 5745 5745 5744 5743 5743 5742 5742 5742 5741 5741 5740 5740 5740 5739 5739 5739 5738 5737 5737 5737 5737
5714 5716 5717 5718 5720 5721 5723 5724 5725 5727 5729 5730 5732 5733 5734 5734 5735 5735 5736 5736 5735 5735 5735 5735 5734 5734 5733 5733 5732 5732 5731 5731 5730 5730 5730 5729 5729 5728 5728 5727 5727 5726 5726
5705 5707 5708 5709 5711 5713 5714 5715 5717 5718 5720 5722 5723 5724 5725 5725 5725 5726 5726 5726 5726 5726 5725 5725 5725 5724 5724 5723 5723 5722 5722 5721 5720 5720 5719 5719 5718 5718 5717 5717 5716 5716 5716
5697 5698 5700 5701 5702 5704 5705 5707 5708 5709 5711 5713 5714 5715 5716 5716 5716 5717 5717 5717 5717 5716 5716 5715 5715 5714 5714 5713 5712 5712 5711 5711 5710 5710 5709 5708 5707 5707 5706 5706 5705 5705 5705
5688 5690 5691 5693 5694 5695 5697 5698 5700 5701 5702 5704 5705 5706 5707 5707 5707 5707 5707 5707 5707 5707 5706 5705 5705 5704 5703 5703 5702 5701 5701 5700 5700 5699 5699 5698 5697 5696 5695 5694 5694 5693 5693
5679 5681 5682 5684 5686 5687 5688 5690 5691 5692 5693 5694 5696 5697 5697 5698 5698 5698 5698 5698 5697 5697 5696 5696 5695 5694 5693 5692 5692 5691 5690 5689 5688 5688 5688 5687 5686 5684 5683 5682 5682 5681 5681
5671 5672 5674 5675 5677 5679 5680 5681 5682 5683 5684 5685 5686 5687 5688 5688 5688 5688 5688 5688 5687 5687 5686 5686 5685 5684 5683 5682 5681 5680 5679 5678 5677 5676 5676 5676 5675 5673 5672 5671 5669 5669 5668